Location: Brompton
(51.4000°N, 0.5333°E)
Time: 18:36:26
(UTC+00:00)

Meteor 1-27 Rocket - Pass Details

Date: 11 May 2021
Orbit: 829 x 910 km, 81.3° (Epoch: 21 June)

Event Time Altitude Azimuth Distance (km) Brightness Sun altitude
Exits shadow 21:58:48 20° 181° (S) 1,948 5.1 -16.0°
Maximum altitude 22:02:59 76° 99° (E) 934 3.8 -16.3°
Drops below altitude 10° 22:08:55 10° 15° (NNE) 2,605 6.9 -16.8°
Sets 22:11:25 0° 14° (NNE) 3,554 7.8 -16.9°
